Flag for U.S.A. Weather past 2 weeks in Allentown, Pennsylvania, U.S.A.

Now
19 °F

Sunny.


Feels Like: 11 °F
Forecast: 4 / 24 °F
Wind: 6 mph from Southwest

Location: Lehigh Valley International Airport

Current Time: Mar 6, 2015 at 12:52:27 PM

Latest Report: Mar 6, 2015 at 11:51 AM


Visibility: 10 mi

Pressure: 30.55 "Hg

Humidity: 47%

Dew point: 2 °F

Location of AllentownLocation

Historic Weather in Allentown — Graph

°F

Allentown temperature yesterday

Maximum temperature yesterday: 36 °F (at 12:51 AM)
Minimum temperature yesterday: 14 °F (at 11:51 PM)
Average temperature yesterday: 24 °F

Past Weeks' High & Low Weather Summary

 TemperatureHumidityPressure
High41 °F (Feb 22, 2:51 PM)93% (Mar 4, 11:59 AM)30.84 "Hg (Mar 4, 11:59 AM)
Low-7 °F (Feb 24, 6:51 AM)26% (Feb 28, 2:51 PM)29.75 "Hg (Mar 4, 3:04 AM)
Average21 °F60%30.24 "Hg
* Reported Feb 19 11:51 AM — Mar 6 11:51 AM, Allentown, Weather by CustomWeather, © 2015

Note: Actual official high and low records may vary slightly from our data, if they occured in-between our weather recording intervals... More about our weather records

Advertising

Allentown weather history for previous 24 hours

 ConditionsComfort  
Time TempWeatherWind HumidityBarometerVisibility
11:51 AM
Fri, Mar 6
19 °FSunny.6 mph47%30.55 "Hg10 mi
10:51 AM18 °FSunny.No wind47%30.56 "Hg10 mi
9:51 AM14 °FSunny.8 mph53%30.58 "Hg10 mi
8:51 AM11 °FSunny.7 mph59%30.58 "Hg10 mi
7:51 AM8 °FSunny.3 mph63%30.58 "Hg10 mi
6:51 AM4 °FSunny.6 mph69%30.56 "Hg10 mi
5:51 AM3 °FClear.No wind66%30.53 "Hg10 mi
4:51 AM5 °FClear.No wind66%30.51 "Hg10 mi
3:51 AM5 °FClear.No wind60%30.49 "Hg10 mi
2:51 AM8 °FClear.7 mph60%30.47 "Hg10 mi
1:51 AM10 °FClear.10 mph58%30.47 "Hg10 mi
12:51 AM13 °FClear.9 mph54%30.45 "Hg10 mi
11:51 PM
Thu, Mar 5
14 °FClear.10 mph53%30.45 "Hg10 mi
10:51 PM16 °FClear.10 mph53%30.42 "Hg10 mi
9:51 PM18 °FClear.12 mph54%30.40 "Hg10 mi
8:51 PM19 °FPassing clouds.9 mph52%30.36 "Hg10 mi
7:51 PM19 °FOvercast.10 mph52%30.32 "Hg10 mi
6:51 PM20 °FOvercast.10 mph52%30.31 "Hg10 mi
5:51 PM20 °FOvercast.12 mph55%30.29 "Hg10 mi
4:51 PM20 °FMore clouds than sun.6 mph68%30.25 "Hg10 mi
3:51 PM19 °FMostly cloudy.6 mph71%30.24 "Hg10 mi
2:51 PM19 °FLight snow. Overcast.9 mph74%30.22 "Hg1 mi
1:51 PM21 °FMostly cloudy.7 mph55%30.19 "Hg10 mi
12:54 PM19 °FLight snow. Mostly cloudy.No wind79%30.18 "Hg2 mi
12:01 PM21 °FLight snow. Ice fog.6 mph80%30.20 "Hg1 mi
Weather by CustomWeather, © 2015

See weather overviewHow to use our weather pages